TimeCDT,TemperatureF,Dew PointF,Humidity,Sea Level PressureIn,VisibilityMPH,Wind Direction,Wind SpeedMPH,Gust SpeedMPH,PrecipitationIn,Events,Conditions,WindDirDegrees,DateUTC
12:53 AM,73.0,60.1,64,29.86,10.0,Calm,Calm,-,N/A,,Clear,0,2013-06-04 05:53:00
1:53 AM,73.9,62.1,66,29.85,10.0,SSE,3.5,-,N/A,,Clear,160,2013-06-04 06:53:00
2:53 AM,73.0,64.0,73,29.85,9.0,South,5.8,-,N/A,,Clear,170,2013-06-04 07:53:00
3:53 AM,72.0,66.0,81,29.86,10.0,SSE,6.9,-,N/A,,Clear,160,2013-06-04 08:53:00
4:53 AM,71.1,66.9,87,29.86,9.0,South,5.8,-,N/A,,Clear,170,2013-06-04 09:53:00
5:48 AM,69.8,66.2,88,29.91,6.0,South,5.8,-,N/A,,Partly Cloudy,170,2013-06-04 10:48:00
5:53 AM,70.0,66.9,90,29.85,6.0,South,4.6,-,N/A,,Partly Cloudy,170,2013-06-04 10:53:00
6:53 AM,69.1,66.9,93,29.85,5.0,SSW,5.8,-,N/A,,Clear,200,2013-06-04 11:53:00
7:53 AM,72.0,66.0,81,29.86,6.0,South,8.1,-,N/A,,Haze,170,2013-06-04 12:53:00
8:53 AM,75.0,64.9,71,29.88,8.0,South,11.5,-,N/A,,Clear,180,2013-06-04 13:53:00
9:53 AM,79.0,64.0,60,29.89,8.0,South,11.5,-,N/A,,Clear,170,2013-06-04 14:53:00
10:53 AM,82.0,64.0,54,29.89,9.0,South,11.5,18.4,N/A,,Clear,180,2013-06-04 15:53:00
11:53 AM,84.9,62.1,46,29.89,10.0,SSE,10.4,-,N/A,,Clear,160,2013-06-04 16:53:00
12:53 PM,87.1,59.0,39,29.90,10.0,ESE,10.4,-,N/A,,Clear,120,2013-06-04 17:53:00
1:53 PM,88.0,60.1,39,29.87,10.0,SSE,12.7,18.4,N/A,,Clear,150,2013-06-04 18:53:00
2:53 PM,89.1,61.0,39,29.85,10.0,SSE,9.2,19.6,N/A,,Clear,160,2013-06-04 19:53:00
3:53 PM,90.0,62.1,39,29.83,10.0,SSE,11.5,19.6,N/A,,Clear,160,2013-06-04 20:53:00
4:53 PM,91.0,62.1,38,29.82,10.0,South,12.7,23.0,N/A,,Clear,170,2013-06-04 21:53:00
5:53 PM,90.0,61.0,38,29.79,10.0,SSE,9.2,19.6,N/A,,Clear,160,2013-06-04 22:53:00
6:53 PM,89.1,61.0,39,29.79,10.0,South,10.4,-,N/A,,Clear,170,2013-06-04 23:53:00
7:53 PM,87.1,60.1,40,29.79,10.0,South,11.5,-,N/A,,Clear,170,2013-06-05 00:53:00
8:53 PM,84.0,60.1,44,29.79,10.0,SSE,4.6,-,N/A,,Clear,150,2013-06-05 01:53:00
9:53 PM,82.0,60.1,47,29.81,10.0,South,4.6,-,N/A,,Clear,170,2013-06-05 02:53:00
10:53 PM,80.1,60.1,50,29.84,10.0,SSE,4.6,-,N/A,,Clear,150,2013-06-05 03:53:00
11:53 PM,78.1,64.0,62,29.85,10.0,SSE,5.8,-,N/A,,Clear,150,2013-06-05 04:53:00